Weather History for Gdansk Airport, Poland

Change the Weather History Date:

Tuesday, November 20, 2012

  Actual Average Record
Temperature  
Mean Temperature 40 °F -  
Max Temperature 44 °F 35 °F 48 °F (2006)
Min Temperature 35 °F 27 °F 15 °F (1998)
Degree Days  
Heating Degree Days 26    
Moisture  
Dew Point 39 °F    
Average Humidity 92    
Maximum Humidity 100    
Minimum Humidity 81    
Precipitation  
Precipitation 0.00 in - - ()
Sea Level Pressure  
Sea Level Pressure 30.22 in    
Wind  
Wind Speed 4 mph ()    
Max Wind Speed 8 mph    
Max Gust Speed -    
Visibility 2.0 miles    
Events Fog    
Averages and records for this station are not official NWS values.
T = Trace of Precipitation, MM = Missing Value Source: Averaged Metar Reports

Daily Weather History Graph

Daily Weather History Graph

Search for Another Location

Airport:

Trip Planner

Search our weather history database for the weather conditions in past years. The results will help you decide how hot, cold, wet, or windy it might be!

Date:

Astronomy

Nov. 20, 2012 Rise Set
Actual Time 7:25 AM CET 3:37 PM CET
Civil Twilight 6:44 AM CET 4:18 PM CET
Nautical Twilight 5:59 AM CET 5:03 PM CET
Astronomical Twilight 5:17 AM CET 5:45 PM CET
Moon 12:20 PM CET (11/20) 11:25 PM CET (11/20)
Length of Visible Light 9h 34m
Length of Day
8h 12m
Waxing Crescent, 48% of the Moon is Illuminated
Nov 20
Waxing Crescent
Nov 20
First Quarter
Nov 28
Full
Dec 6
Last Quarter
Dec 13
New

Hourly Weather History & Observations

Time (CET) Temp. Windchill Dew Point Humidity Pressure Visibility Wind Dir Wind Speed Gust Speed Precip Events Conditions
12:00 AM 41.0 °F 39.0 °F 39.2 °F 93% 30.21 in 3.7 mi SSE 3.5 mph - N/A   Mostly Cloudy
12:30 AM 41.0 °F 38.0 °F 39.2 °F 93% 30.21 in 3.7 mi SSE 4.6 mph - N/A   Mostly Cloudy
1:00 AM 41.0 °F 37.1 °F 39.2 °F 93% 30.21 in 3.7 mi SSE 5.8 mph - N/A   Mostly Cloudy
1:30 AM 41.0 °F 36.4 °F 39.2 °F 93% 30.21 in 3.7 mi SSE 6.9 mph - N/A   Mostly Cloudy
2:00 AM 41.0 °F 39.0 °F 37.4 °F 87% 30.21 in 3.7 mi Variable 3.5 mph - N/A   Mostly Cloudy
2:30 AM 41.0 °F 38.0 °F 39.2 °F 93% 30.21 in 3.7 mi South 4.6 mph - N/A   Mostly Cloudy
3:00 AM 41.0 °F 36.4 °F 39.2 °F 93% 30.21 in 3.7 mi South 6.9 mph - N/A   Mostly Cloudy
3:30 AM 41.0 °F 38.0 °F 39.2 °F 93% 30.21 in 3.7 mi SSW 4.6 mph - N/A   Mostly Cloudy
4:00 AM 41.0 °F 37.1 °F 39.2 °F 93% 30.21 in 2.5 mi SSW 5.8 mph - N/A   Mostly Cloudy
4:30 AM 41.0 °F 37.1 °F 39.2 °F 93% 30.21 in 2.5 mi SSW 5.8 mph - N/A   Mostly Cloudy
5:00 AM 41.0 °F 39.0 °F 39.2 °F 93% 30.21 in 1.9 mi South 3.5 mph - N/A   Mostly Cloudy
5:30 AM 41.0 °F 39.0 °F 39.2 °F 93% 30.21 in 1.9 mi SSE 3.5 mph - N/A   Mostly Cloudy
6:00 AM 41.0 °F 39.0 °F 39.2 °F 93% 30.21 in 1.9 mi SSE 3.5 mph - N/A   Mostly Cloudy
6:30 AM 41.0 °F - 39.2 °F 93% 30.21 in 1.9 mi Variable 2.3 mph - N/A   Mostly Cloudy
7:00 AM 41.0 °F 39.0 °F 39.2 °F 93% 30.21 in 1.9 mi SSE 3.5 mph - N/A   Mostly Cloudy
7:30 AM 41.0 °F 39.0 °F 39.2 °F 93% 30.21 in 1.6 mi South 3.5 mph - N/A   Mostly Cloudy
8:00 AM 41.0 °F 39.0 °F 39.2 °F 93% 30.21 in 1.4 mi South 3.5 mph - N/A   Mostly Cloudy
8:30 AM 41.0 °F 39.0 °F 41.0 °F 100% 30.21 in 1.4 mi South 3.5 mph - N/A   Mostly Cloudy
9:00 AM 41.0 °F 39.0 °F 41.0 °F 100% 30.21 in 1.4 mi South 3.5 mph - N/A   Mostly Cloudy
9:30 AM 42.8 °F 40.1 °F 41.0 °F 93% 30.24 in 1.4 mi South 4.6 mph - N/A   Mostly Cloudy
10:00 AM 42.8 °F 40.1 °F 41.0 °F 93% 30.24 in 1.4 mi South 4.6 mph - N/A   Mostly Cloudy
10:30 AM 42.8 °F 39.3 °F 41.0 °F 93% 30.24 in 1.4 mi South 5.8 mph - N/A   Mostly Cloudy
11:00 AM 44.6 °F 40.7 °F 41.0 °F 87% 30.21 in 1.6 mi South 6.9 mph - N/A   Mostly Cloudy
11:30 AM 44.6 °F 40.2 °F 41.0 °F 87% 30.21 in 1.9 mi South 8.1 mph - N/A   Mostly Cloudy
12:00 PM 44.6 °F 41.4 °F 41.0 °F 87% 30.21 in 1.6 mi South 5.8 mph - N/A   Mostly Cloudy
12:30 PM 44.6 °F 41.4 °F 39.2 °F 81% 30.21 in 1.9 mi South 5.8 mph - N/A   Mostly Cloudy
1:00 PM 44.6 °F 42.2 °F 41.0 °F 87% 30.21 in 1.6 mi SSE 4.6 mph - N/A   Scattered Clouds
1:30 PM 44.6 °F 42.2 °F 39.2 °F 81% 30.21 in 1.9 mi SSE 4.6 mph - N/A   Scattered Clouds
2:00 PM 42.8 °F 41.1 °F 39.2 °F 87% 30.21 in 1.9 mi SSE 3.5 mph - N/A   Mostly Cloudy
2:30 PM 42.8 °F 41.1 °F 39.2 °F 87% 30.24 in 1.9 mi SE 3.5 mph - N/A   Mostly Cloudy
3:00 PM 41.0 °F 39.0 °F 39.2 °F 93% 30.24 in 1.9 mi SE 3.5 mph - N/A   Mostly Cloudy
3:30 PM 41.0 °F - 39.2 °F 93% 30.24 in 1.6 mi Variable 2.3 mph - N/A   Mostly Cloudy
4:00 PM 41.0 °F 39.0 °F 39.2 °F 93% 30.24 in 0.9 mi SE 3.5 mph - N/A   Scattered Clouds
4:30 PM 41.0 °F 39.0 °F 39.2 °F 93% 30.24 in 1.0 mi SE 3.5 mph - N/A   Partly Cloudy
5:00 PM 41.0 °F 39.0 °F 39.2 °F 93% 30.24 in 1.0 mi SSE 3.5 mph - N/A   Partly Cloudy
5:30 PM 39.2 °F 37.0 °F 37.4 °F 93% 30.24 in 1.0 mi SSE 3.5 mph - N/A   Mist
6:00 PM 39.2 °F 37.0 °F 37.4 °F 93% 30.24 in 1.1 mi SSE 3.5 mph - N/A   Mist
6:30 PM 39.2 °F 37.0 °F 37.4 °F 93% 30.24 in 1.4 mi SSE 3.5 mph - N/A   Mist
7:00 PM 37.4 °F 34.9 °F 37.4 °F 100% 30.24 in 1.4 mi SE 3.5 mph - N/A   Unknown
7:30 PM 39.2 °F 35.9 °F 37.4 °F 93% 30.24 in 1.4 mi SSE 4.6 mph - N/A   Mist
8:00 PM 39.2 °F 35.9 °F 37.4 °F 93% 30.24 in 1.4 mi South 4.6 mph - N/A   Mist
8:30 PM 37.4 °F 33.8 °F 37.4 °F 100% 30.24 in 1.6 mi South 4.6 mph - N/A   Mist
9:00 PM 37.4 °F 33.8 °F 35.6 °F 93% 30.24 in 3.1 mi South 4.6 mph - N/A   Mist
9:30 PM 37.4 °F - 35.6 °F 93% 30.24 in 2.5 mi Variable 2.3 mph - N/A   Mist
10:00 PM 35.6 °F - 33.8 °F 93% 30.24 in 1.6 mi Variable 2.3 mph - N/A Fog Patches of Fog
10:30 PM 37.4 °F 34.9 °F 35.6 °F 93% 30.24 in 1.6 mi SSE 3.5 mph - N/A Fog Patches of Fog
11:00 PM 37.4 °F 34.9 °F 35.6 °F 93% 30.24 in 1.6 mi SSE 3.5 mph - N/A Fog Patches of Fog
11:30 PM 37.4 °F 34.9 °F 35.6 °F 93% 30.24 in 1.6 mi SSE 3.5 mph - N/A Fog Patches of Fog